OBJECT J, 68635

Orbit data source: Space-Track

You're viewing an Uncataloged Satellite

Recently launched and/or uncataloged satellites may have evolving metadata. Metadata may include but not limited to: Owner, Maufacturer, Bus, Motor, and Mission.

OBJECT J, 68635 is a satellite owned by Texas A&M (US) in LEO that was launched on Tue, 07 Apr 2026 UTC via an MINOTAUR IV launch vehicle from the Air Force Western Test Range (AFWTR). Unknown objects in Earth's orbit typically refer to objects detected orbiting the Earth but have not yet been identified or cataloged. These objects could be anything from previously untracked satellites, spent rocket stages, debris from satellite collisions, or even natural meteoroids temporarily captured by Earth's gravity.

Loading next visibility...
Identifier
68635, 2026-074J
Orbit
LEO
Country
Flag of USUS
Related business
Manufacturer
Texas A&M
Mission
Operational spacecraft
Bus & Motor
CUBESAT 6U, Unknown motor
Mass
10 kg wet, ~10 kg dry
Launch date (UTC)
2026-04-07 (2 months ago)
Launch vehicle
MINOTAUR IV
Launch site
Air Force Western Test Range (AFWTR)
Object type
Unknown
Shape & HBR
Unknown shape, 1.1 m
Radar Cross Section
RCS unknown

Expand to show TLE details & history
Last TLE update: 2 days ago

TLE from 2 days ago
0 OBJECT J
1 68635U 26074J   26143.50362882  .00008886  00000-0  36401-3 0  9994
2 68635  60.0225 272.8426 0025483   5.1544 354.9794 15.24732353  7022
Epoch: 2026-05-23T12:05Z
TLE epoch observation values (Epoch: 2026-05-23T12:05:13.530Z)
Latitude
-0°
Longitude
-149.58296°
Altitude
475.751 km
Speed
7.638 km/s
True Right ascension
18h 11m 22s
True Declination
0° 00' 00"
Sunlit
Object was in full shadow at epoch
Visualization orbit readout
Latitude
Unknown
Longitude
Unknown
Altitude
Unknown
Speed
Unknown
Apparent Right ascension
Unknown
Apparent Declination
Unknown
Sunlit
N/A
Visualization observer readout
Local Sidereal Time
09:39:12
Azimuth
Unknown
Elevation
Unknown
Doppler factor
Unknown
Orbital elements
Apogee altitude
508.293 km
Perigee altitude
473.285 km
Semi-major axis
6,868.926 km
Eccentricity
0.00255
Inclination
60.0225°
RAAN
272.8426°
Arg. of periapsis
5.1544°
True anomaly
354.95376°
Mean anomaly
354.9794°
Eccentric anomaly
354.96659°
Mean motion
3.8125 °/min
Orbital period
94.43 mins
BSTAR
0.00036401
Loading maneuver chart data...
Computing Atmospheric mass density...
Loading historical data...
Loading historical data...
Loading historical data...
Loading historical data...
Loading historical data...
Loading historical data...
Loading historical data...

Documentation

Showing up to 5 results
|